Time,TemperatureF,DewpointF,PressureIn,WindDirection,WindDirectionDegrees,WindSpeedMPH,WindSpeedGustMPH,Humidity,HourlyPrecipIn,Conditions,Clouds,dailyrainin,SoftwareType,DateUTC
2013-02-17 00:01:00,39.0,39.0,30.19,SE,135,0.0,1.0,99,0.11,,,1.07,,2013-02-17 08:01:00,
2013-02-17 00:11:00,39.0,39.0,30.19,SE,135,0.0,1.0,99,0.11,,,1.07,,2013-02-17 08:11:00,
2013-02-17 00:21:00,39.0,39.0,30.20,North,-999,0.0,0.0,100,0.09,,,1.11,,2013-02-17 08:21:00,
2013-02-17 00:31:00,39.0,39.0,30.20,North,-999,0.0,0.0,100,0.09,,,1.13,,2013-02-17 08:31:00,
2013-02-17 00:41:00,39.0,39.0,30.20,North,-999,0.0,0.0,100,0.09,,,1.13,,2013-02-17 08:41:00,
2013-02-17 00:52:00,38.0,38.0,30.21,North,-999,0.0,0.0,100,0.12,,,1.18,,2013-02-17 08:52:00,
2013-02-17 01:01:00,38.0,38.0,30.21,North,-999,0.0,0.0,100,0.11,,,1.19,,2013-02-17 09:01:00,
2013-02-17 01:11:00,38.0,38.0,30.21,North,-999,0.0,0.0,100,0.11,,,1.19,,2013-02-17 09:11:00,
2013-02-17 01:21:00,38.0,38.0,30.21,North,-999,0.0,0.0,100,0.10,,,1.21,,2013-02-17 09:21:00,
2013-02-17 01:31:00,38.0,38.0,30.21,North,-999,0.0,0.0,100,0.08,,,1.21,,2013-02-17 09:31:00,
2013-02-17 01:41:00,38.0,38.0,30.21,North,-999,0.0,0.0,100,0.08,,,1.21,,2013-02-17 09:41:00,
2013-02-17 01:52:00,37.0,37.0,30.21,NE,45,0.0,4.0,100,0.04,,,1.21,,2013-02-17 09:52:00,
2013-02-17 02:01:00,37.0,37.0,30.22,NNE,22,0.0,1.0,100,0.04,,,1.22,,2013-02-17 10:01:00,
2013-02-17 02:11:00,37.0,37.0,30.22,NNE,22,0.0,1.0,100,0.04,,,1.22,,2013-02-17 10:11:00,
2013-02-17 02:21:00,37.0,37.0,30.22,North,-999,0.0,0.0,100,0.02,,,1.22,,2013-02-17 10:21:00,
2013-02-17 02:31:00,37.0,37.0,30.22,North,-999,0.0,0.0,100,0.02,,,1.22,,2013-02-17 10:31:00,
2013-02-17 02:41:00,37.0,37.0,30.22,North,-999,0.0,0.0,100,0.02,,,1.22,,2013-02-17 10:41:00,
2013-02-17 02:52:00,37.0,37.0,30.22,North,-999,0.0,0.0,100,0.01,,,1.22,,2013-02-17 10:52:00,
2013-02-17 03:01:00,37.0,37.0,30.22,North,-999,0.0,0.0,100,0.00,,,1.22,,2013-02-17 11:01:00,
2013-02-17 03:11:00,37.0,37.0,30.22,North,-999,0.0,0.0,100,0.00,,,1.22,,2013-02-17 11:11:00,
2013-02-17 03:21:00,37.0,37.0,30.22,North,-999,0.0,0.0,100,0.00,,,1.22,,2013-02-17 11:21:00,
2013-02-17 03:32:00,37.0,37.0,30.21,North,-999,0.0,0.0,100,0.00,,,1.22,,2013-02-17 11:32:00,
2013-02-17 03:41:00,37.0,37.0,30.21,North,-999,0.0,0.0,100,0.00,,,1.22,,2013-02-17 11:41:00,
2013-02-17 03:52:00,37.0,37.0,30.22,North,-999,0.0,0.0,100,0.00,,,1.22,,2013-02-17 11:52:00,
2013-02-17 04:02:00,37.0,37.0,30.22,North,-999,0.0,0.0,100,0.00,,,1.22,,2013-02-17 12:02:00,
2013-02-17 04:11:00,37.0,37.0,30.22,North,-999,0.0,0.0,100,0.00,,,1.22,,2013-02-17 12:11:00,
2013-02-17 04:22:00,37.0,37.0,30.21,North,-999,0.0,0.0,100,0.00,,,1.22,,2013-02-17 12:22:00,
2013-02-17 04:31:00,37.0,37.0,30.22,North,-999,0.0,0.0,100,0.00,,,1.22,,2013-02-17 12:31:00,
2013-02-17 04:42:00,37.0,37.0,30.22,North,-999,0.0,0.0,100,0.00,,,1.22,,2013-02-17 12:42:00,
2013-02-17 04:52:00,37.0,37.0,30.22,North,-999,0.0,0.0,100,0.00,,,1.22,,2013-02-17 12:52:00,
2013-02-17 05:01:00,37.0,37.0,30.22,WNW,292,0.0,1.0,100,0.00,,,1.22,,2013-02-17 13:01:00,
2013-02-17 05:11:00,37.0,37.0,30.22,WNW,292,0.0,1.0,100,0.00,,,1.22,,2013-02-17 13:11:00,
2013-02-17 05:21:00,37.0,37.0,30.22,North,-999,0.0,0.0,100,0.00,,,1.21,,2013-02-17 13:21:00,
2013-02-17 05:32:00,37.0,37.0,30.22,North,-999,0.0,0.0,100,0.01,,,1.21,,2013-02-17 13:32:00,
2013-02-17 05:41:00,37.0,37.0,30.22,North,-999,0.0,0.0,100,0.01,,,1.21,,2013-02-17 13:41:00,
2013-02-17 05:52:00,37.0,37.0,30.22,North,-999,0.0,0.0,100,0.01,,,1.21,,2013-02-17 13:52:00,
2013-02-17 06:01:00,37.0,37.0,30.22,North,-999,0.0,0.0,100,0.01,,,1.20,,2013-02-17 14:01:00,
2013-02-17 06:11:00,37.0,37.0,30.22,North,-999,0.0,0.0,100,0.01,,,1.20,,2013-02-17 14:11:00,
2013-02-17 06:21:00,37.0,37.0,30.22,North,-999,0.0,0.0,100,0.01,,,1.19,,2013-02-17 14:21:00,
2013-02-17 06:32:00,37.0,37.0,30.22,NW,315,0.0,1.0,100,0.00,,,1.19,,2013-02-17 14:32:00,
2013-02-17 06:42:00,37.0,37.0,30.22,NW,315,0.0,1.0,100,0.00,,,1.19,,2013-02-17 14:42:00,
2013-02-17 06:52:00,37.0,37.0,30.22,North,0,0.0,1.0,100,0.00,,,1.19,,2013-02-17 14:52:00,
2013-02-17 07:01:00,37.0,37.0,30.22,ESE,112,0.0,1.0,100,0.00,,,1.19,,2013-02-17 15:01:00,
2013-02-17 07:11:00,37.0,37.0,30.22,ESE,112,0.0,1.0,100,0.00,,,1.19,,2013-02-17 15:11:00,
2013-02-17 07:21:00,37.0,37.0,30.21,NNW,337,0.0,1.0,100,0.00,,,1.19,,2013-02-17 15:21:00,
2013-02-17 07:31:00,37.0,37.0,30.21,SW,225,0.0,1.0,100,0.01,,,1.20,,2013-02-17 15:31:00,
2013-02-17 07:41:00,37.0,37.0,30.21,SW,225,0.0,1.0,100,0.01,,,1.20,,2013-02-17 15:41:00,
2013-02-17 07:51:00,37.0,37.0,30.22,North,-999,0.0,0.0,100,0.01,,,1.20,,2013-02-17 15:51:00,
2013-02-17 08:01:00,37.0,37.0,30.22,North,0,0.0,1.0,100,0.01,,,1.20,,2013-02-17 16:01:00,
2013-02-17 08:11:00,37.0,37.0,30.22,North,0,0.0,1.0,100,0.01,,,1.20,,2013-02-17 16:11:00,
2013-02-17 08:21:00,37.0,37.0,30.22,North,-999,0.0,0.0,100,0.00,,,1.18,,2013-02-17 16:21:00,
2013-02-17 08:31:00,37.0,37.0,30.23,North,-999,0.0,0.0,100,0.00,,,1.16,,2013-02-17 16:31:00,
2013-02-17 08:41:00,37.0,37.0,30.23,North,-999,0.0,0.0,100,0.00,,,1.16,,2013-02-17 16:41:00,
2013-02-17 08:52:00,38.0,38.0,30.23,WSW,247,0.0,1.0,100,0.00,,,1.14,,2013-02-17 16:52:00,
2013-02-17 09:02:00,38.0,38.0,30.24,NE,45,0.0,1.0,100,0.00,,,1.11,,2013-02-17 17:02:00,
2013-02-17 09:11:00,38.0,38.0,30.24,NE,45,0.0,1.0,100,0.00,,,1.11,,2013-02-17 17:11:00,
2013-02-17 09:21:00,38.0,38.0,30.23,NE,45,0.0,1.0,100,0.00,,,1.07,,2013-02-17 17:21:00,
2013-02-17 09:31:00,38.0,38.0,30.23,NE,45,0.0,1.0,100,0.00,,,1.07,,2013-02-17 17:31:00,
2013-02-17 09:41:00,38.0,38.0,30.23,NE,45,0.0,1.0,100,0.00,,,1.07,,2013-02-17 17:41:00,
2013-02-17 09:52:00,39.0,39.0,30.24,North,-999,0.0,0.0,100,0.00,,,1.02,,2013-02-17 17:52:00,
2013-02-17 10:01:00,39.0,39.0,30.24,North,-999,0.0,0.0,99,0.00,,,1.00,,2013-02-17 18:01:00,
2013-02-17 10:11:00,39.0,39.0,30.24,North,-999,0.0,0.0,99,0.00,,,1.00,,2013-02-17 18:11:00,
2013-02-17 10:21:00,40.0,40.0,30.24,SE,135,0.0,3.0,99,0.00,,,0.94,,2013-02-17 18:21:00,
2013-02-17 10:33:00,40.0,39.0,30.24,East,90,0.0,2.0,98,0.00,,,0.93,,2013-02-17 18:33:00,
2013-02-17 10:41:00,40.0,39.0,30.24,East,90,0.0,2.0,98,0.00,,,0.93,,2013-02-17 18:41:00,
2013-02-17 10:52:00,40.0,39.0,30.24,WSW,247,0.0,2.0,97,0.00,,,0.90,,2013-02-17 18:52:00,
2013-02-17 11:01:00,40.0,39.0,30.24,NE,45,0.0,2.0,97,0.00,,,0.89,,2013-02-17 19:01:00,
2013-02-17 11:11:00,40.0,39.0,30.24,NE,45,0.0,2.0,97,0.00,,,0.89,,2013-02-17 19:11:00,
2013-02-17 11:21:00,40.0,39.0,30.24,NE,45,1.0,3.0,97,0.00,,,0.87,,2013-02-17 19:21:00,
2013-02-17 11:31:00,40.0,39.0,30.24,NNE,22,0.0,1.0,98,0.00,,,0.86,,2013-02-17 19:31:00,
2013-02-17 11:41:00,40.0,39.0,30.24,NNE,22,0.0,1.0,98,0.00,,,0.86,,2013-02-17 19:41:00,
2013-02-17 11:52:00,40.0,39.0,30.24,NE,45,0.0,3.0,97,0.01,,,0.85,,2013-02-17 19:52:00,
2013-02-17 12:01:00,41.0,40.0,30.24,ENE,67,0.0,4.0,97,0.01,,,0.83,,2013-02-17 20:01:00,
2013-02-17 12:11:00,41.0,40.0,30.24,ENE,67,0.0,4.0,97,0.01,,,0.83,,2013-02-17 20:11:00,
2013-02-17 12:21:00,41.0,40.0,30.24,NE,45,0.0,3.0,96,0.01,,,0.75,,2013-02-17 20:21:00,
2013-02-17 12:31:00,41.0,40.0,30.23,NW,315,0.0,2.0,96,0.01,,,0.68,,2013-02-17 20:31:00,
2013-02-17 12:42:00,41.0,40.0,30.23,NW,315,0.0,2.0,96,0.01,,,0.68,,2013-02-17 20:42:00,
2013-02-17 12:52:00,41.0,40.0,30.23,NNE,22,0.0,1.0,95,0.00,,,0.62,,2013-02-17 20:52:00,
2013-02-17 13:01:00,41.0,40.0,30.22,North,-999,0.0,0.0,95,0.00,,,0.62,,2013-02-17 21:01:00,
2013-02-17 13:11:00,41.0,40.0,30.22,North,-999,0.0,0.0,95,0.00,,,0.62,,2013-02-17 21:11:00,
2013-02-17 13:21:00,41.0,40.0,30.22,SW,225,0.0,1.0,95,0.00,,,0.61,,2013-02-17 21:21:00,
2013-02-17 13:31:00,41.0,40.0,30.22,NE,45,0.0,3.0,95,0.00,,,0.55,,2013-02-17 21:31:00,
2013-02-17 13:41:00,41.0,40.0,30.22,NE,45,0.0,3.0,95,0.00,,,0.55,,2013-02-17 21:41:00,
2013-02-17 13:52:00,41.0,40.0,30.22,WNW,292,0.0,1.0,96,0.00,,,0.52,,2013-02-17 21:52:00,
2013-02-17 14:01:00,41.0,40.0,30.22,NE,45,0.0,1.0,96,0.00,,,0.51,,2013-02-17 22:01:00,
2013-02-17 14:11:00,41.0,40.0,30.22,NE,45,0.0,1.0,96,0.00,,,0.51,,2013-02-17 22:11:00,
2013-02-17 14:21:00,41.0,40.0,30.22,NNE,22,0.0,1.0,95,0.01,,,0.50,,2013-02-17 22:21:00,
2013-02-17 14:32:00,41.0,39.0,30.22,North,-999,0.0,0.0,94,0.01,,,0.48,,2013-02-17 22:32:00,
2013-02-17 14:41:00,41.0,39.0,30.22,North,-999,0.0,0.0,94,0.01,,,0.48,,2013-02-17 22:41:00,
2013-02-17 14:52:00,41.0,40.0,30.21,North,-999,0.0,0.0,96,0.01,,,0.45,,2013-02-17 22:52:00,
2013-02-17 15:01:00,41.0,40.0,30.21,ENE,67,0.0,1.0,97,0.01,,,0.45,,2013-02-17 23:01:00,
2013-02-17 15:11:00,41.0,40.0,30.21,ENE,67,0.0,1.0,97,0.01,,,0.45,,2013-02-17 23:11:00,
2013-02-17 15:21:00,40.0,39.0,30.21,North,0,0.0,2.0,97,0.00,,,0.45,,2013-02-17 23:21:00,
2013-02-17 15:31:00,40.0,39.0,30.21,ENE,67,1.0,4.0,97,0.01,,,0.46,,2013-02-17 23:31:00,
2013-02-17 15:41:00,40.0,39.0,30.21,ENE,67,1.0,4.0,97,0.01,,,0.46,,2013-02-17 23:41:00,
2013-02-17 15:52:00,39.0,38.0,30.20,ENE,67,0.0,2.0,98,0.01,,,0.46,,2013-02-17 23:52:00,
2013-02-17 16:01:00,39.0,38.0,30.20,East,90,0.0,3.0,98,0.01,,,0.46,,2013-02-18 00:01:00,
2013-02-17 16:11:00,39.0,38.0,30.20,East,90,0.0,3.0,98,0.01,,,0.46,,2013-02-18 00:11:00,
2013-02-17 16:22:00,39.0,38.0,30.20,ENE,67,0.0,1.0,98,0.01,,,0.46,,2013-02-18 00:22:00,
2013-02-17 16:31:00,38.0,37.0,30.19,North,-999,0.0,0.0,98,0.00,,,0.45,,2013-02-18 00:31:00,
2013-02-17 16:41:00,38.0,37.0,30.19,North,-999,0.0,0.0,98,0.00,,,0.45,,2013-02-18 00:41:00,
2013-02-17 16:52:00,38.0,37.0,30.19,NE,45,0.0,2.0,98,0.00,,,0.44,,2013-02-18 00:52:00,
2013-02-17 17:01:00,38.0,37.0,30.18,North,-999,0.0,0.0,98,0.00,,,0.43,,2013-02-18 01:01:00,
2013-02-17 17:11:00,38.0,37.0,30.18,North,-999,0.0,0.0,98,0.00,,,0.43,,2013-02-18 01:11:00,
2013-02-17 17:21:00,38.0,37.0,30.18,North,-999,0.0,0.0,98,0.00,,,0.43,,2013-02-18 01:21:00,
2013-02-17 17:31:00,38.0,37.0,30.17,North,-999,0.0,0.0,98,0.00,,,0.43,,2013-02-18 01:31:00,
2013-02-17 17:41:00,38.0,37.0,30.17,North,-999,0.0,0.0,98,0.00,,,0.43,,2013-02-18 01:41:00,
2013-02-17 17:51:00,37.0,36.0,30.17,North,-999,0.0,0.0,98,0.00,,,0.43,,2013-02-18 01:51:00,
2013-02-17 18:01:00,37.0,37.0,30.17,North,-999,0.0,0.0,99,0.00,,,0.43,,2013-02-18 02:01:00,
2013-02-17 18:11:00,37.0,37.0,30.17,North,-999,0.0,0.0,99,0.00,,,0.43,,2013-02-18 02:11:00,
2013-02-17 18:21:00,36.0,36.0,30.16,North,-999,0.0,0.0,99,0.00,,,0.43,,2013-02-18 02:21:00,
2013-02-17 18:31:00,36.0,36.0,30.16,North,-999,0.0,0.0,99,0.00,,,0.43,,2013-02-18 02:31:00,
2013-02-17 18:41:00,36.0,36.0,30.16,North,-999,0.0,0.0,99,0.00,,,0.43,,2013-02-18 02:41:00,
2013-02-17 18:52:00,36.0,36.0,30.16,North,-999,0.0,0.0,100,0.00,,,0.43,,2013-02-18 02:52:00,
2013-02-17 19:01:00,36.0,36.0,30.16,North,-999,0.0,0.0,100,0.00,,,0.43,,2013-02-18 03:01:00,
2013-02-17 19:11:00,36.0,36.0,30.16,North,-999,0.0,0.0,100,0.00,,,0.43,,2013-02-18 03:11:00,
2013-02-17 19:21:00,36.0,36.0,30.16,South,180,0.0,1.0,100,0.00,,,0.43,,2013-02-18 03:21:00,
2013-02-17 19:31:00,36.0,36.0,30.16,North,-999,0.0,0.0,100,0.00,,,0.43,,2013-02-18 03:31:00,
2013-02-17 19:41:00,36.0,36.0,30.16,North,-999,0.0,0.0,100,0.00,,,0.43,,2013-02-18 03:41:00,
2013-02-17 19:52:00,35.0,35.0,30.16,North,-999,0.0,0.0,100,0.00,,,0.42,,2013-02-18 03:52:00,
2013-02-17 20:01:00,35.0,35.0,30.16,North,-999,0.0,0.0,100,0.00,,,0.42,,2013-02-18 04:01:00,
2013-02-17 20:11:00,35.0,35.0,30.16,North,-999,0.0,0.0,100,0.00,,,0.42,,2013-02-18 04:11:00,
2013-02-17 20:21:00,35.0,35.0,30.16,North,-999,0.0,0.0,100,0.00,,,0.42,,2013-02-18 04:21:00,
2013-02-17 20:32:00,35.0,35.0,30.16,North,-999,0.0,0.0,100,0.00,,,0.42,,2013-02-18 04:32:00,
2013-02-17 20:41:00,35.0,35.0,30.16,North,-999,0.0,0.0,100,0.00,,,0.42,,2013-02-18 04:41:00,
2013-02-17 20:52:00,36.0,36.0,30.16,North,-999,0.0,0.0,100,0.00,,,0.42,,2013-02-18 04:52:00,
2013-02-17 21:01:00,36.0,36.0,30.16,North,-999,0.0,0.0,100,0.00,,,0.42,,2013-02-18 05:01:00,
2013-02-17 21:11:00,36.0,36.0,30.16,North,-999,0.0,0.0,100,0.00,,,0.42,,2013-02-18 05:11:00,
2013-02-17 21:21:00,36.0,36.0,30.16,WSW,247,0.0,1.0,100,0.00,,,0.42,,2013-02-18 05:21:00,
2013-02-17 21:31:00,36.0,36.0,30.16,SSW,202,0.0,1.0,100,0.00,,,0.42,,2013-02-18 05:31:00,
2013-02-17 21:41:00,36.0,36.0,30.16,SSW,202,0.0,1.0,100,0.00,,,0.42,,2013-02-18 05:41:00,
2013-02-17 21:52:00,36.0,36.0,30.15,North,-999,0.0,0.0,100,0.00,,,0.42,,2013-02-18 05:52:00,
2013-02-17 22:01:00,36.0,36.0,30.15,SW,225,0.0,1.0,100,0.00,,,0.42,,2013-02-18 06:01:00,
2013-02-17 22:11:00,36.0,36.0,30.15,SW,225,0.0,1.0,100,0.00,,,0.42,,2013-02-18 06:11:00,
2013-02-17 22:21:00,35.0,35.0,30.15,West,270,0.0,1.0,99,0.00,,,0.41,,2013-02-18 06:21:00,
2013-02-17 22:31:00,35.0,35.0,30.14,WSW,247,0.0,1.0,99,0.00,,,0.40,,2013-02-18 06:31:00,
2013-02-17 22:41:00,35.0,35.0,30.14,North,-999,0.0,0.0,99,0.00,,,0.35,,2013-02-18 06:41:00,
2013-02-17 22:51:00,35.0,35.0,30.14,North,-999,0.0,0.0,99,0.00,,,0.35,,2013-02-18 06:51:00,
2013-02-17 23:01:00,34.0,34.0,30.14,North,-999,0.0,0.0,99,0.00,,,0.33,,2013-02-18 07:01:00,
2013-02-17 23:11:00,34.0,34.0,30.14,North,-999,0.0,0.0,99,0.00,,,0.33,,2013-02-18 07:11:00,
2013-02-17 23:21:00,34.0,34.0,30.14,East,90,0.0,1.0,100,0.00,,,0.26,,2013-02-18 07:21:00,
2013-02-17 23:31:00,34.0,34.0,30.13,North,-999,0.0,0.0,100,0.00,,,0.24,,2013-02-18 07:31:00,
2013-02-17 23:42:00,34.0,34.0,30.13,North,-999,0.0,0.0,100,0.00,,,0.24,,2013-02-18 07:42:00,
2013-02-17 23:52:00,34.0,34.0,30.13,WSW,247,0.0,1.0,100,0.00,,,0.22,,2013-02-18 07:52:00,